Regional Weather Roundup
Issued by NWS

Home | Current Version | Previous Version | Text Only | Print | Product List | Glossary Off
Versions: 1 2 3 4 5 6 7 8 9 10 11 12 13 14 15 16 17 18 19 20 21 22 23 24 25 26 27

000
ASUS45 KBOU 250607
RWRCO

WEATHER ROUNDUP FOR COLORADO
NATIONAL WEATHER SERVICE DENVER/BOULDER CO
1200 AM MDT SAT MAR 25 2017

NOTE: "FAIR" INDICATES FEW OR NO CLOUDS BELOW 12000 FEET WITH NO
SIGNIFICANT WEATHER AND/OR OBSTRUCTIONS TO VISIBILITY.

COZ001>005-013-030-031-250700-
...NORTHWEST COLORADO...

CITY           SKY/WX    TMP DP  RH WIND       PRES   REMARKS
CRAIG          FAIR      30  23  75 CALM      30.16S
HAYDEN         FAIR      36  21  55 E8        30.15F
MEEKER         FAIR      32  23  69 N5        30.16F WCI  27
MOUNT WERNER   NOT AVBL
STEAMBOAT SPGS FAIR      34  24  68 CALM      30.16F
WALDEN         NOT AVBL
$$

COZ006>008-011-250700-
...WEST CENTRAL VALLEYS...

CITY           SKY/WX    TMP DP  RH WIND       PRES   REMARKS
GRAND JUNCTION FAIR      45  28  51 SE5       30.13S
MONTROSE       FAIR      42  30  62 SE13      30.19F
EAGLE          FAIR      35  25  66 E6        30.21R WCI  30
RIFLE          FAIR      38  26  62 S5        30.16S
DELTA          FAIR      45  27  49 CALM      30.17S
NUCLA          FAIR      41  30  65 E12       30.21F
$$

COZ017>023-064>068-250700-
...SOUTHWEST COLORADO...

CITY           SKY/WX    TMP DP  RH WIND       PRES   REMARKS
DURANGO        FAIR      36  24  62 N5        30.18R
CORTEZ         FAIR      34  28  79 NE8       30.18F WCI  27
PAGOSA SPRINGS FAIR      36  34  94 CALM      30.22R
TELLURIDE      NOT AVBL
WOLF CREEK PAS FAIR      27  19  74 SW8       30.36F WCI  18
$$

COZ009-010-012-014-032>034-037-058>063-250700-
...CENTRAL COLORADO...

CITY           SKY/WX    TMP DP  RH WIND       PRES   REMARKS
ASPEN          FAIR      32  25  75 S6        30.21R WCI  26
BUENA VISTA    FAIR      29  20  70 W6        30.20F WCI  23
COPPER MTN     FAIR      27  19  74 W8        30.28F WCI  18
BERTHOUD PASS  FAIR      18   7  62 NW24G33   30.25F WCI   0
COTTONWOOD PAS FAIR      36  19  51 W6        30.23F
GUNNISON       FAIR      32  24  72 NW6       30.24R WCI  26
KREMMLING      FAIR      34  27  75 CALM      30.22R
LEADVILLE      FAIR      23  16  74 VRB5      30.23F WCI  17
MONARCH PASS   FAIR      23  21  93 SW15      30.39S WCI  10
SALIDA         FAIR      37  26  65 NW3       30.27S
SUNLIGHT       FAIR      25  21  86 SW10      30.31F WCI  15
WILKERSON PASS MOCLDY    27  18  69 W9        30.26S WCI  17
$$

COZ069>075-250700-
...SAN LUIS VALLEY/SANGRE DE CRISTO MOUNTAINS...

CITY           SKY/WX    TMP DP  RH WIND       PRES   REMARKS
ALAMOSA        FAIR      29  26  89 CALM      30.19F
LA VETA PASS   NOT AVBL
SAGUACHE       FAIR      34  25  69 NW10      30.21S WCI  26
$$

COZ035-036-038>040-250700-
...NORTHERN COLORADO FRONT RANGE...

CITY           SKY/WX    TMP DP  RH WIND       PRES   REMARKS
DENVER INTL AP FAIR      32  28  85 S10       30.11F WCI  24
DMNS CITY PARK   N/A     38  32  77 E10       30.11F
AURORA         CLEAR     35  32  87 S9        30.12F WCI  28
FRONT RANGE AP FAIR      34  32  93 S8        30.13F WCI  27
ERIE MUNI ARPT FAIR      36  32  84 S3        30.11F
BOULDER MUN AP FAIR      39  30  70 CALM      30.11F
CENTENNIAL     FAIR      37  31  78 SE7       30.12F
BROOMFIELD     FAIR      37  32  81 CALM      30.12F
FORT COLLINS   FAIR      41  30  65 CALM      30.12F
LONGMONT       FAIR      36  29  77 CALM      30.13F
$$

COZ041-046-047-076>085-087-088-250700-
...PIKES PEAK/PALMER DIVIDE AND SOUTHERN FOOTHILLS...

CITY           SKY/WX    TMP DP  RH WIND       PRES   REMARKS
COLO. SPRINGS  FAIR      33  27  78 N8        30.14F WCI  26
A. F. ACADEMY  FAIR      28  27  99 N5        30.13F WCI  22
SCHRIEVER AFB  FAIR      36  28  72 N6        30.15F
ELLICOTT         N/A    N/A N/A N/A NE3       30.13F
FALCON         FAIR      30  28  90 CALM      30.16F
FORT CARSON    FAIR      36  29  76 CALM      30.13F
LIMON          FAIR      32  29  88 NW5       30.13F WCI  27
MONUMENT HILL  FAIR      28  23  80 SW6       30.16F WCI  22
TRINIDAD       FAIR      33  29  85 W9        30.16F WCI  25
$$

COZ042>045-048>051-090-091-250700-
...NORTHEAST COLORADO...

CITY           SKY/WX    TMP DP  RH WIND       PRES   REMARKS
GREELEY ARPT   FAIR      33  26  75 NE5       30.13F WCI  29
AKRON          FAIR      34  30  85 W8        30.11F WCI  27
BURLINGTON     FAIR      35  32  88 N5        30.08F WCI  31
WRAY           NOT AVBL
STERLING       FAIR      34  32  93 CALM      30.11F
HOLYOKE        FAIR      36  32  87 NW7       30.10F
FORT MORGAN    FAIR      35  30  85 W5        30.13F WCI  30
$$

COZ086-089-092>099-250700-
...SOUTHEAST COLORADO...

CITY           SKY/WX    TMP DP  RH WIND       PRES   REMARKS
PUEBLO         FAIR      35  31  85 W3        30.14F
LA JUNTA       FAIR      39  33  79 SW5       30.13F
LAMAR          FAIR      34  31  88 NW6       30.11F WCI  29
SPRINGFIELD      N/A     34  32  92 NW14      30.11R WCI  25
$$




USA.gov is the U.S. government's official web portal to all federal, state and local government web resources and services.